Regional Weather Roundup
Issued by NWS

Home | Current Version | Previous Version | Text Only | Print | Product List | Glossary On
Versions: 1 2 3 4 5 6 7 8 9 10 11 12 13 14 15 16 17 18 19 20 21 22 23 24 25 26 27 28 29 30 31 32 33 34 35 36 37 38 39 40 41 42 43 44 45 46 47 48 49 50
000
ASUS43 KLMK 311010
RWRKY
KENTUCKY REGIONAL WEATHER ROUNDUP
NATIONAL WEATHER SERVICE LOUISVILLE KY
600 AM EDT TUE MAY 31 2016

NOTE "FAIR" INDICATES FEW OR NO CLOUDS BELOW 12,000 FEET
WITH NO SIGNIFICANT WEATHER AND/OR OBSTRUCTIONS TO VISIBILITY.

KYZ001>023-026-027-061>063-070>075-311100-
WESTERN AND SOUTH CENTRAL KENTUCKY

CITY           SKY/WX    TMP DP  RH WIND       PRES   REMARKS
PADUCAH        CLOUDY    67  65  93 CALM      29.95S
HENDERSON      CLOUDY    66  61  82 CALM      29.96S
OWENSBORO      CLOUDY    67  66  96 E3        29.97S
HOPKINSVILLE   CLOUDY    68  64  87 CALM      29.96S
BOWLING GREEN  CLOUDY    64  61  90 CALM      29.97S
GLASGOW        PTCLDY    61  61 100 CALM      29.98R
$$

KYZ024-025-028>034-038-045-046-053-311100-
NORTH CENTRAL KENTUCKY

CITY           SKY/WX    TMP DP  RH WIND       PRES   REMARKS
LOUISVILLE/SDF MOCLDY    67  60  78 SE5       29.98S
LOUISVILLE/LOU MOCLDY    67  61  81 E3        29.99R
FORT KNOX      MOCLDY    62  59  91 CALM      29.97S
$$

KYZ035>037-039>044-047>052-055>060-089>105-311100-
NORTHEAST KENTUCKY

CITY           SKY/WX    TMP DP  RH WIND       PRES   REMARKS
LEXINGTON      CLOUDY    62  58  86 CALM      30.00R
COVINGTON      MOCLDY    67  58  72 CALM      29.99R
FRANKFORT      CLOUDY    60  57  89 N3        29.99R
$$

KYZ054-064>069-076>088-106>120-311100-
SOUTHEAST KENTUCKY

CITY           SKY/WX    TMP DP  RH WIND       PRES   REMARKS
JACKSON        CLEAR     63  59  87 CALM      30.01R
LONDON         CLOUDY    61  58  90 CALM      30.00R
SOMERSET       CLOUDY    59  59 100 CALM      30.01R
MIDDLESBORO    FOG       60  60 100 CALM      30.01S VSB 1/2
MONTICELLO     CLOUDY    59  58  96 VRB5      30.01R
$$




USA.gov is the U.S. government's official web portal to all federal, state and local government web resources and services.